Dewpoint
50 50 50 50 50 51 51 51 51 50 48 30 30 36 27 21 12 26 34 37 29 21 9 23 19 15 20 23 24 23 24 17 20 21 21 19 19 18 18 18 17 16 12 14 12 11 5 12 9 11 13 12 17 22 22 19 18 16 14 14 14 24 5 2 7 9 8 11 12 13 13 11 9 9 10 9 5 9 11 6 2 3 -2 -2 -4 -1 7
49 50 50 50 50 50 50 51 51 49 48 36 33 28 22 24 23 27 31 33 31 17 3 5 10 15 22 22 23 23 24 21 19 21 22 17 16 17 20 17 17 12 19 14 9 12 3 11 10 11 17 16 24 24 23 22 20 14 13 8 14 5 11 6 2 4 7 9 9 10 12 9 8 7 9 8 3 1 -1 -1 -4 2 4 7 4 5 8
49 49 49 49 49 49 50 50 51 50 48 44 36 19 26 23 23 26 28 30 23 12 20 12 8 13 18 15 16 17 19 21 21 21 20 21 16 15 15 17 18 17 20 18 21 19 6 7 11 10 12 15 18 18 18 16 21 23 25 27 24 7 10 5 1 0 2 3 4 5 4 4 9 8 9 8 5 4 4 3 -0 1 4 5 -1 5 8
48 48 49 49 49 49 50 50 50 49 48 47 33 27 17 10 -0 19 21 23 24 24 24 22 18 14 12 7 10 17 15 19 22 22 22 21 21 19 18 20 20 19 17 15 16 16 18 9 7 7 8 9 20 22 15 19 23 26 26 23 13 5 9 9 9 9 7 9 10 14 17 10 6 7 7 6 5 6 1 4 0 5 4 6 7 8 9
49 49 49 49 49 49 49 50 50 49 48 46 32 28 16 17 4 12 8 17 17 18 21 21 15 9 16 1 8 7 12 13 11 22 19 21 18 20 19 19 12 12 12 11 15 17 17 16 10 9 7 8 14 18 21 20 26 29 27 21 7 3 4 8 10 10 12 11 10 11 13 10 10 9 12 7 6 6 7 7 9 10 5 7 9 9 9
50 49 49 49 49 49 49 49 50 49 48 47 34 22 23 10 14 17 15 6 11 2 5 22 19 17 13 3 13 10 14 13 5 13 19 24 22 13 10 18 17 14 13 11 5 12 17 12 7 8 7 9 11 12 20 22 24 24 16 13 9 4 4 5 5 6 10 11 11 11 11 11 10 11 11 11 8 6 6 8 11 9 8 8 9 10 9
49 49 49 49 49 49 49 49 49 50 49 43 31 17 21 22 21 18 21 9 16 10 13 23 21 19 17 22 13 7 15 9 12 14 16 17 17 15 4 6 17 17 18 12 8 15 1 3 5 10 8 8 7 7 9 22 24 16 13 12 2 8 7 4 5 8 11 12 12 13 13 12 12 12 13 13 11 9 10 11 11 10 10 10 10 10 10
49 48 48 48 48 48 48 49 49 50 49 37 30 26 20 17 15 11 18 20 18 18 19 18 15 13 17 4 6 10 14 11 15 17 14 4 11 20 8 13 17 19 19 14 7 12 9 5 5 7 9 6 8 6 11 14 22 17 13 9 10 9 8 12 6 3 9 10 11 9 12 11 10 10 11 11 12 12 11 9 11 11 10 11 11 11 11
48 48 48 48 48 48 48 49 49 50 50 30 27 27 25 27 22 22 13 6 11 18 17 17 15 9 10 6 8 14 17 14 17 12 14 7 9 18 13 16 21 21 19 18 15 18 16 11 13 14 12 11 16 10 8 18 15 15 12 8 10 6 7 -1 0 4 9 9 9 9 9 9 9 9 10 11 10 7 10 9 12 8 10 10 8 8 12
48 48 48 48 48 48 49 49 49 50 46 31 29 26 27 27 28 27 20 8 21 15 12 11 8 3 15 14 10 14 15 19 18 12 18 23 22 22 20 20 18 17 18 17 19 20 21 20 21 20 17 19 19 17 14 19 18 14 10 7 7 4 2 4 0 5 8 9 8 8 9 9 8 6 10 11 12 11 11 12 13 12 12 8 9 11 13
48 48 48 49 49 49 49 49 49 50 39 30 26 26 25 22 19 24 19 8 9 12 10 7 6 13 17 22 14 20 19 22 21 4 4 22 22 24 21 20 16 16 16 18 24 23 24 23 22 20 21 20 21 21 21 21 21 17 16 8 6 2 4 4 3 3 1 5 8 8 5 1 4 11 13 11 9 10 10 9 10 11 12 12 13 13 14
48 49 49 48 49 48 48 48 48 49 48 32 29 27 30 26 21 21 16 4 12 8 8 9 12 12 19 20 21 20 19 21 20 23 11 17 22 22 21 18 16 11 17 25 24 26 25 24 23 22 22 21 21 20 19 20 20 20 15 11 5 5 4 4 -1 4 7 6 7 6 -4 4 10 13 13 14 13 11 11 11 11 12 13 13 13 14 14
48 48 49 49 48 48 48 48 48 48 49 36 31 25 29 27 24 17 16 10 3 11 5 11 9 14 20 24 23 22 21 22 21 24 23 22 20 24 21 19 17 15 26 26 21 21 13 10 13 19 20 14 17 18 18 16 17 18 17 12 11 4 3 -2 7 -2 2 1 -4 -1 2 7 10 11 10 11 13 14 12 10 12 12 13 14 13 14 14
49 48 48 48 48 47 47 47 47 47 48 42 35 30 29 27 25 20 16 12 17 10 10 12 14 13 21 22 21 21 18 18 17 20 21 25 20 22 26 24 25 28 25 25 16 10 9 9 -1 6 6 8 9 8 17 16 16 17 16 16 14 11 -0 4 7 3 2 -3 -1 8 7 6 8 9 10 10 10 10 9 8 9 10 13 14 14 15 15
48 48 48 47 47 47 47 47 47 47 48 42 33 31 30 30 27 25 25 18 11 11 7 4 13 14 18 22 19 16 11 12 13 15 22 27 23 21 25 26 27 27 25 22 12 12 6 4 0 1 5 1 -4 -2 19 18 18 15 17 14 13 13 10 10 6 5 3 5 4 2 -1 -2 6 10 12 13 11 10 10 8 10 13 14 15 15 15 16
48 47 47 46 46 47 47 47 47 48 47 40 32 31 31 32 31 25 21 23 16 3 8 17 20 20 19 21 20 15 12 10 11 11 10 14 19 24 26 25 25 24 19 12 10 6 5 4 -0 -4 -3 -2 4 4 0 12 11 13 16 14 13 12 10 6 5 4 2 3 2 -2 1 4 9 11 12 13 12 11 11 5 6 13 15 16 15 15 16
48 48 47 46 46 46 47 47 48 48 45 39 28 30 31 32 31 24 18 17 12 9 18 23 25 23 19 13 17 16 16 10 15 6 5 11 16 24 24 25 25 24 18 11 10 7 5 2 -4 -3 2 6 4 2 7 8 8 5 15 15 14 8 1 4 7 6 3 -5 1 3 -4 4 9 12 13 13 11 13 7 -2 0 10 15 15 16 16 17
48 48 48 48 46 46 47 48 48 48 45 42 32 31 30 31 31 32 26 19 10 9 26 28 23 18 17 16 15 19 20 19 18 16 17 20 21 21 21 23 19 19 23 9 8 4 1 2 2 1 2 7 9 7 3 5 4 3 7 14 10 9 8 3 8 -3 5 8 0 -3 6 11 14 13 13 13 13 9 0 -2 7 15 15 16 17 17 18
48 48 48 48 48 48 48 49 49 48 45 40 31 30 27 28 28 29 23 20 14 7 26 24 25 24 23 23 26 22 20 18 20 7 8 8 12 23 23 22 21 9 16 7 8 3 4 2 11 -0 2 6 8 2 8 4 4 10 9 8 3 -0 -1 3 -2 4 4 2 4 8 7 12 13 14 13 12 10 3 4 12 16 15 16 17 18 18 18
48 48 47 48 48 48 49 49 48 47 41 42 35 27 27 27 28 31 24 18 18 21 26 28 28 28 27 30 25 21 22 21 20 14 12 10 16 18 9 10 12 15 13 11 8 7 4 4 3 7 4 0 6 8 3 5 10 9 9 7 5 6 4 1 2 3 3 0 -0 3 2 5 13 13 12 14 12 13 15 15 16 17 17 17 18 18 19
47 48 48 47 47 47 47 47 47 45 46 42 37 27 25 29 29 29 27 25 23 12 19 27 28 28 29 27 26 27 24 19 19 16 19 18 21 12 4 1 9 10 6 5 3 3 4 5 2 4 10 5 7 9 3 2 5 10 10 4 5 6 3 1 1 5 4 1 3 4 14 13 14 14 13 14 15 16 17 17 16 17 18 18 18 19 19
48 47 47 46 47 47 47 47 47 47 46 42 38 27 24 26 28 31 31 28 23 16 17 26 29 28 28 28 29 31 30 29 30 26 22 16 24 15 12 18 19 13 10 10 6 5 7 6 3 3 3 5 9 6 6 6 4 7 9 8 11 12 7 9 8 7 5 8 10 14 13 14 15 15 15 16 18 18 18 18 18 17 18 19 19 19 20
48 48 46 47 48 46 46 46 46 46 47 44 38 28 25 26 27 31 27 26 27 29 31 31 31 31 32 32 31 29 29 31 31 30 26 21 16 20 19 19 16 20 22 17 11 9 9 9 7 6 6 4 7 6 4 4 3 3 8 13 11 14 13 13 10 11 13 13 13 16 13 13 14 15 17 17 18 18 18 18 18 18 19 20 19 20 20
47 47 47 48 47 46 45 46 45 45 45 45 38 28 25 27 28 27 27 27 23 19 21 28 28 15 20 23 29 31 31 29 30 31 31 29 16 12 18 21 24 20 19 21 20 13 10 9 9 5 5 11 3 5 4 4 6 9 4 12 8 11 13 11 8 11 12 4 9 9 10 14 15 14 16 19 18 18 19 19 19 19 20 20 20 20 20
47 47 47 47 46 45 46 46 45 46 44 42 36 34 31 29 29 25 19 16 17 17 6 10 12 22 28 29 30 31 31 32 32 33 32 30 29 21 18 24 26 21 18 20 19 15 8 9 8 6 5 13 8 10 13 4 9 11 5 9 9 10 12 12 12 13 12 10 11 13 14 15 15 17 18 17 18 19 20 20 20 20 20 20 20 21 20
46 46 46 46 46 47 47 46 45 44 45 41 40 26 25 25 28 29 32 28 21 16 9 5 12 28 29 29 27 29 31 33 30 32 31 30 29 27 27 28 25 23 23 22 16 13 8 7 2 3 5 13 12 6 6 9 12 13 11 5 12 12 13 8 12 13 14 15 15 14 15 15 16 18 18 19 19 20 20 20 20 20 20 20 20 21 21
46 46 46 46 46 46 45 46 45 45 43 41 36 32 33 31 30 30 27 29 19 12 18 8 10 20 26 25 28 32 31 30 30 30 31 30 30 30 29 27 25 19 16 12 12 6 6 6 7 9 5 9 6 7 7 11 11 5 6 10 13 12 10 12 14 13 12 12 13 16 14 14 15 17 18 19 20 21 21 21 20 20 20 21 21 21 21
45 45 45 45 45 44 44 42 43 42 40 38 35 32 29 31 30 31 30 28 23 10 8 8 11 16 25 27 29 29 30 30 30 29 28 28 29 28 28 25 24 15 12 12 12 10 8 9 10 7 2 5 8 10 7 8 6 7 9 9 13 9 10 14 13 11 14 15 17 17 17 17 18 19 20 20 21 21 21 20 20 20 21 21 21 20 21
45 45 45 44 43 45 44 45 43 42 42 38 30 31 29 31 30 34 33 30 26 24 23 19 21 16 14 25 27 28 28 28 29 28 28 28 28 27 26 25 22 15 10 8 6 5 6 9 10 10 12 14 10 8 5 7 -0 5 9 11 13 11 14 15 15 16 17 18 18 18 18 18 19 20 20 21 22 22 21 21 21 21 21 21 21 21 20
45 45 43 45 44 44 45 43 42 45 42 29 28 24 21 19 27 30 32 30 27 26 20 10 8 8 23 28 28 25 26 27 27 27 27 26 25 25 25 26 23 24 15 13 12 12 14 12 13 16 18 21 11 7 6 4 1 10 11 11 12 12 14 16 18 17 17 18 19 19 19 19 20 21 21 22 22 22 21 21 21 21 21 21 20 20 20
45 45 45 45 46 46 46 45 45 44 38 25 18 13 13 9 13 37 36 30 27 24 15 20 12 11 13 24 26 25 23 26 25 25 25 25 25 24 21 20 19 23 13 12 11 13 13 10 11 15 18 24 13 5 6 2 1 3 9 11 12 13 14 15 18 18 19 19 20 20 20 20 22 21 21 21 22 21 21 21 21 22 21 21 20 20 20
45 45 45 45 45 46 46 46 45 41 27 21 15 14 12 13 16 27 36 33 27 20 17 13 9 8 8 19 22 26 27 26 25 25 24 26 19 20 17 20 17 22 27 12 15 12 13 18 12 13 11 21 15 2 -3 3 5 10 11 11 13 14 15 17 18 19 19 20 20 20 19 19 20 21 21 22 21 20 20 19 19 18 20 20 20 21 22
45 45 45 44 45 45 45 46 42 34 25 31 40 42 41 42 40 39 39 28 25 15 15 16 8 12 14 11 17 20 24 21 17 17 15 22 19 19 15 20 20 22 24 19 11 12 16 16 14 11 16 14 9 3 4 8 9 11 12 13 13 14 16 18 19 19 19 20 20 19 18 19 20 22 22 21 19 19 19 19 19 18 19 19 20 22 23
46 46 44 45 44 45 44 42 41 37 36 22 16 18 22 39 38 39 28 25 17 14 17 15 9 9 10 12 11 15 22 16 13 16 11 21 19 17 15 16 19 13 18 17 19 16 14 14 10 12 13 10 10 4 4 8 11 13 13 13 14 16 18 19 19 19 19 20 21 21 21 21 22 22 19 18 17 18 20 19 18 18 19 21 21 18 17
46 45 45 43 45 44 41 38 28 30 21 25 27 29 26 40 41 41 33 21 12 13 12 14 17 11 14 14 9 17 20 16 12 15 12 14 19 13 16 8 10 12 12 18 15 14 9 13 16 10 10 6 4 3 6 11 12 14 14 15 16 17 18 19 18 19 19 20 21 21 21 20 18 16 15 16 17 19 19 17 18 19 21 18 16 15 14
45 46 45 45 43 42 31 31 25 16 13 13 17 32 40 41 40 29 26 24 20 14 14 10 14 8 8 9 11 10 20 14 15 11 12 14 13 14 11 9 10 13 17 14 9 9 9 17 11 8 4 6 6 9 11 12 14 15 15 15 17 18 18 19 19 18 18 19 19 19 17 15 14 14 15 17 19 18 17 17 19 18 15 15 14 13 13
45 44 43 38 29 21 16 20 31 19 17 19 25 36 39 39 30 29 27 27 25 24 20 11 17 7 13 12 12 16 20 15 16 11 9 12 12 8 7 7 10 19 12 7 4 8 13 15 8 5 3 5 8 13 13 14 15 15 16 17 18 19 20 20 19 17 16 17 16 14 13 13 14 15 17 18 16 15 16 19 16 14 15 13 13 13 13
43 39 27 23 16 13 11 14 17 22 36 34 34 26 24 27 13 17 21 20 15 27 17 17 11 9 13 13 12 18 16 11 13 9 8 4 13 7 8 9 13 18 6 5 8 16 6 3 3 5 7 13 14 16 13 15 17 16 18 19 19 20 21 20 16 16 16 14 12 11 13 14 14 17 14 13 13 15 17 15 13 14 13 14 13 14 15
36 22 21 20 13 9 14 16 29 38 31 33 27 10 9 14 13 12 10 11 13 17 12 17 10 14 11 8 13 23 18 12 13 6 9 14 14 12 7 8 9 8 -0 2 6 10 2 0 -2 0 7 9 11 12 15 18 18 19 19 20 20 21 22 16 15 15 14 13 12 13 13 14 16 13 12 13 15 17 13 13 14 13 13 14 15 16 16
21 15 13 12 11 14 29 30 36 30 29 12 14 13 10 13 18 10 10 10 10 10 12 14 12 14 14 13 12 13 23 17 10 11 9 11 19 9 9 6 7 3 2 0 4 2 3 2 -1 -3 1 12 12 13 18 19 19 19 19 19 19 22 17 15 15 14 13 13 13 14 16 18 16 14 14 15 16 12 12 13 14 14 15 16 16 16 15
23 17 15 12 19 23 23 27 23 19 14 11 12 11 10 11 11 8 11 9 9 10 11 12 8 12 12 11 13 12 20 16 9 6 7 11 15 16 5 5 8 1 0 2 6 -1 -3 -3 -4 3 6 13 12 16 19 19 18 19 19 18 21 19 15 14 12 12 13 13 14 14 15 17 18 17 16 18 15 14 14 15 15 16 16 12 13 12 7
27 17 16 26 27 27 22 18 18 14 13 12 10 8 9 8 10 15 12 11 11 11 13 13 12 11 16 15 14 11 9 11 10 8 8 7 18 8 4 2 1 2 2 3 -1 -5 -3 0 1 1 11 12 15 19 19 18 18 19 18 19 19 15 14 12 11 12 13 14 14 14 15 18 16 15 17 16 16 16 17 15 10 9 9 10 12 6 5
35 31 30 19 18 18 17 15 16 13 10 11 6 7 8 8 11 10 11 9 9 10 12 12 12 18 16 11 8 11 11 22 19 10 7 8 19 7 1 0 1 1 4 -5 -3 -4 -3 -2 -3 6 12 15 19 19 19 19 19 18 18 21 15 14 13 11 12 13 14 15 14 16 17 14 14 16 17 18 17 11 8 8 7 8 8 9 5 4 5
28 25 16 15 14 13 12 5 11 10 9 8 8 9 8 10 16 11 10 12 11 7 10 11 13 14 13 10 9 12 13 17 23 3 4 6 1 2 -1 2 4 3 2 -2 -4 1 3 -1 3 11 14 18 19 19 19 19 18 17 18 14 14 12 11 11 12 12 14 14 15 17 14 14 15 17 18 14 9 6 5 4 6 6 6 6 5 4 4
16 16 15 10 8 12 8 4 11 10 9 8 16 8 9 12 14 8 13 13 10 12 11 9 10 8 12 13 6 12 18 9 14 7 5 3 2 1 1 3 1 -7 -1 1 -8 -9 -4 3 11 13 18 19 18 18 19 18 16 17 13 13 12 10 10 11 10 12 13 12 13 14 13 14 16 14 9 8 7 5 3 3 4 5 4 4 4 2 2
20 12 9 6 6 10 9 7 7 7 11 11 13 11 10 12 11 12 11 8 9 12 15 13 8 9 9 9 8 8 1 2 5 4 3 -1 1 2 3 0 -2 2 1 -8 -4 0 2 8 13 17 19 18 18 18 18 15 16 15 13 11 9 9 10 10 11 13 11 10 12 14 12 15 9 6 6 4 3 3 3 3 4 4 4 3 1 0 1
14 12 12 9 10 9 10 9 11 11 11 11 12 10 12 13 12 13 10 8 11 10 9 5 7 7 8 9 7 5 1 1 5 5 1 2 3 2 4 2 0 -6 -6 -5 -6 -1 5 13 17 19 19 18 18 17 14 13 15 13 11 10 9 8 10 10 12 10 9 12 13 14 12 7 5 5 4 2 1 1 2 3 3 4 2 -0 -1 -0 0
10 12 13 10 10 10 13 12 10 11 10 10 10 8 7 8 10 11 10 8 11 11 8 7 7 6 5 5 5 6 5 4 2 4 3 3 2 2 1 0 -4 -5 -7 -0 3 5 14 18 19 19 19 18 16 14 12 14 13 12 10 9 8 9 9 10 10 9 11 13 15 11 7 5 5 3 1 0 0 1 2 3 3 1 -1 -2 -2 -2 -1
19 12 12 10 8 11 13 13 15 14 14 12 6 4 10 12 10 11 8 5 9 9 10 9 6 5 5 6 1 2 5 4 3 3 -2 0 1 2 1 -0 -6 -5 -5 -3 11 16 17 19 20 19 17 15 14 12 13 13 12 11 9 9 8 9 10 9 9 10 12 14 10 7 4 3 2 1 0 -0 -0 -1 1 1 -1 -3 -3 -4 -4 -3 -2
18 16 19 14 15 15 13 11 15 13 12 13 10 11 8 7 10 9 9 11 8 6 6 12 13 9 6 5 4 -1 3 1 2 -0 -2 1 2 -4 -7 -5 -5 0 8 12 17 18 19 20 19 16 14 12 13 12 13 12 12 10 9 9 10 11 10 10 10 11 11 6 6 5 3 2 0 -0 -0 -0 -1 -0 0 -2 -3 -4 -4 -5 -4 -3 -4
15 18 15 15 15 15 13 13 12 11 13 13 11 9 10 10 9 13 8 9 9 4 4 8 7 3 3 3 3 2 5 2 1 2 1 1 1 -3 1 1 0 8 15 18 20 21 20 18 15 12 12 11 11 13 13 12 9 8 9 10 12 11 11 11 12 9 5 5 4 5 1 -0 -0 -0 0 1 -2 -2 -3 -4 -4 -4 -5 -4 -4 -4 -6
13 17 16 15 9 11 11 12 14 14 13 12 12 10 14 8 10 13 9 8 3 11 6 4 2 1 2 5 7 6 0 -0 0 -3 0 1 -4 4 5 9 16 17 19 19 20 19 17 14 13 12 12 12 13 13 12 10 8 8 9 11 11 10 10 12 9 5 5 4 3 1 -0 -0 -0 0 0 -3 -4 -5 -6 -7 -6 -5 -5 -5 -5 -5 -6